Time,TemperatureF,DewpointF,PressureIn,WindDirection,WindDirectionDegrees,WindSpeedMPH,WindSpeedGustMPH,Humidity,HourlyPrecipIn,Conditions,Clouds,dailyrainin,SoftwareType,DateUTC
2013-02-17 00:02:00,12.9,9.0,30.20,West,259,1.0,2.0,85,0.00,,,0.00,weatherlink.com 1.10,2013-02-17 05:02:00,
2013-02-17 00:17:00,13.1,9.0,30.19,WSW,243,1.0,3.0,84,0.00,,,0.00,weatherlink.com 1.10,2013-02-17 05:17:00,
2013-02-17 00:32:00,13.0,9.0,30.19,WSW,243,2.0,3.0,84,0.00,,,0.00,weatherlink.com 1.10,2013-02-17 05:32:00,
2013-02-17 00:47:00,13.0,9.0,30.19,West,262,0.0,2.0,83,0.00,,,0.00,weatherlink.com 1.10,2013-02-17 05:47:00,
2013-02-17 01:02:00,12.8,9.0,30.20,SW,235,4.0,4.0,83,0.00,,,0.00,weatherlink.com 1.10,2013-02-17 06:02:00,
2013-02-17 01:17:00,12.8,9.0,30.20,SW,226,2.0,5.0,83,0.00,,,0.00,weatherlink.com 1.10,2013-02-17 06:17:00,
2013-02-17 01:32:00,13.0,9.0,30.19,SW,224,2.0,5.0,82,0.00,,,0.00,weatherlink.com 1.10,2013-02-17 06:32:00,
2013-02-17 01:47:00,13.3,9.0,30.20,West,265,4.0,5.0,81,0.00,,,0.00,weatherlink.com 1.10,2013-02-17 06:47:00,
2013-02-17 02:02:00,13.4,9.0,30.20,WSW,248,4.0,7.0,81,0.00,,,0.00,weatherlink.com 1.10,2013-02-17 07:02:00,
2013-02-17 02:17:00,13.5,9.0,30.20,WSW,238,4.0,4.0,81,0.00,,,0.00,weatherlink.com 1.10,2013-02-17 07:17:00,
2013-02-17 02:32:00,13.4,9.0,30.20,West,262,2.0,6.0,81,0.00,,,0.00,weatherlink.com 1.10,2013-02-17 07:32:00,
2013-02-17 02:47:00,13.3,9.0,30.20,WSW,253,5.0,6.0,81,0.00,,,0.00,weatherlink.com 1.10,2013-02-17 07:47:00,
2013-02-17 03:02:00,13.3,9.0,30.20,WSW,249,2.0,5.0,82,0.00,,,0.00,weatherlink.com 1.10,2013-02-17 08:02:00,
2013-02-17 03:17:00,13.6,9.0,30.20,West,262,4.0,5.0,83,0.00,,,0.00,weatherlink.com 1.10,2013-02-17 08:17:00,
2013-02-17 03:32:00,13.7,9.0,30.20,WSW,250,5.0,7.0,82,0.00,,,0.00,weatherlink.com 1.10,2013-02-17 08:32:00,
2013-02-17 03:47:00,13.6,9.0,30.20,WSW,239,4.0,6.0,81,0.00,,,0.00,weatherlink.com 1.10,2013-02-17 08:47:00,
2013-02-17 04:02:00,13.3,8.0,30.20,WSW,255,2.0,5.0,80,0.00,,,0.00,weatherlink.com 1.10,2013-02-17 09:02:00,
2013-02-17 04:17:00,12.9,8.0,30.20,West,270,3.0,6.0,81,0.00,,,0.00,weatherlink.com 1.10,2013-02-17 09:17:00,
2013-02-17 04:32:00,12.6,8.0,30.21,SW,232,3.0,4.0,81,0.00,,,0.00,weatherlink.com 1.10,2013-02-17 09:32:00,
2013-02-17 04:48:00,12.4,8.0,30.21,WSW,242,3.0,4.0,81,0.00,,,0.00,weatherlink.com 1.10,2013-02-17 09:48:00,
2013-02-17 05:03:00,12.2,7.0,30.21,WSW,257,2.0,3.0,81,0.00,,,0.00,weatherlink.com 1.10,2013-02-17 10:03:00,
2013-02-17 05:18:00,12.1,8.0,30.22,WSW,254,2.0,3.0,82,0.00,,,0.00,weatherlink.com 1.10,2013-02-17 10:18:00,
2013-02-17 05:33:00,11.8,8.0,30.22,WSW,245,2.0,3.0,83,0.00,,,0.00,weatherlink.com 1.10,2013-02-17 10:33:00,
2013-02-17 05:48:00,11.7,8.0,30.23,WSW,251,2.0,3.0,83,0.00,,,0.00,weatherlink.com 1.10,2013-02-17 10:48:00,
2013-02-17 06:03:00,11.6,7.0,30.23,West,266,0.0,2.0,83,0.00,,,0.00,weatherlink.com 1.10,2013-02-17 11:03:00,
2013-02-17 06:18:00,11.2,7.0,30.24,West,267,0.0,0.0,84,0.00,,,0.00,weatherlink.com 1.10,2013-02-17 11:18:00,
2013-02-17 06:33:00,10.7,7.0,30.25,SSW,203,0.0,1.0,85,0.00,,,0.00,weatherlink.com 1.10,2013-02-17 11:33:00,
2013-02-17 06:48:00,10.5,7.0,30.24,SSW,197,0.0,1.0,85,0.00,,,0.00,weatherlink.com 1.10,2013-02-17 11:48:00,
2013-02-17 07:03:00,10.5,7.0,30.25,South,179,0.0,0.0,85,0.00,,,0.00,weatherlink.com 1.10,2013-02-17 12:03:00,
2013-02-17 07:18:00,10.0,7.0,30.26,South,179,0.0,1.0,86,0.00,,,0.00,weatherlink.com 1.10,2013-02-17 12:18:00,
2013-02-17 07:33:00,9.5,6.0,30.26,South,179,0.0,0.0,87,0.00,,,0.00,weatherlink.com 1.10,2013-02-17 12:33:00,
2013-02-17 07:48:00,9.5,7.0,30.27,South,179,0.0,0.0,88,0.00,,,0.00,weatherlink.com 1.10,2013-02-17 12:48:00,
2013-02-17 08:03:00,9.8,7.0,30.27,South,185,0.0,2.0,88,0.00,,,0.00,weatherlink.com 1.10,2013-02-17 13:03:00,
2013-02-17 08:18:00,10.6,8.0,30.28,WSW,241,2.0,2.0,87,0.00,,,0.00,weatherlink.com 1.10,2013-02-17 13:18:00,
2013-02-17 08:33:00,11.8,8.0,30.28,SW,224,1.0,3.0,85,0.00,,,0.00,weatherlink.com 1.10,2013-02-17 13:33:00,
2013-02-17 08:48:00,13.3,9.0,30.29,West,263,0.0,3.0,83,0.00,,,0.00,weatherlink.com 1.10,2013-02-17 13:48:00,
2013-02-17 09:03:00,14.5,10.0,30.29,West,276,1.0,2.0,81,0.00,,,0.00,weatherlink.com 1.10,2013-02-17 14:03:00,
2013-02-17 09:18:00,15.2,10.0,30.29,SW,224,1.0,3.0,80,0.00,,,0.00,weatherlink.com 1.10,2013-02-17 14:18:00,
2013-02-17 09:33:00,16.1,11.0,30.29,SW,215,1.0,3.0,80,0.00,,,0.00,weatherlink.com 1.10,2013-02-17 14:33:00,
2013-02-17 09:48:00,17.9,12.0,30.29,WNW,291,2.0,3.0,79,0.00,,,0.00,weatherlink.com 1.10,2013-02-17 14:48:00,
2013-02-17 10:03:00,19.4,14.0,30.29,West,281,0.0,4.0,78,0.00,,,0.00,weatherlink.com 1.10,2013-02-17 15:03:00,
2013-02-17 10:18:00,20.1,13.0,30.29,SW,217,0.0,4.0,75,0.00,,,0.00,weatherlink.com 1.10,2013-02-17 15:18:00,
2013-02-17 10:33:00,21.2,14.0,30.29,WSW,245,1.0,5.0,73,0.00,,,0.00,weatherlink.com 1.10,2013-02-17 15:33:00,
2013-02-17 10:49:00,21.1,13.0,30.29,WNW,293,0.0,5.0,72,0.00,,,0.00,weatherlink.com 1.10,2013-02-17 15:49:00,
2013-02-17 11:04:00,21.9,13.0,30.29,West,276,1.0,5.0,68,0.00,,,0.00,weatherlink.com 1.10,2013-02-17 16:04:00,
2013-02-17 11:19:00,22.8,13.0,30.29,West,271,1.0,3.0,66,0.00,,,0.00,weatherlink.com 1.10,2013-02-17 16:19:00,
2013-02-17 11:34:00,23.0,12.0,30.29,SE,141,2.0,6.0,64,0.00,,,0.00,weatherlink.com 1.10,2013-02-17 16:34:00,
2013-02-17 11:49:00,23.6,13.0,30.29,West,264,3.0,6.0,63,0.00,,,0.00,weatherlink.com 1.10,2013-02-17 16:49:00,
2013-02-17 12:04:00,24.3,14.0,30.29,West,262,4.0,7.0,66,0.00,,,0.00,weatherlink.com 1.10,2013-02-17 17:04:00,
2013-02-17 12:19:00,22.9,13.0,30.28,West,269,1.0,4.0,65,0.00,,,0.00,weatherlink.com 1.10,2013-02-17 17:19:00,
2013-02-17 12:34:00,22.4,12.0,30.27,WSW,240,2.0,6.0,64,0.00,,,0.00,weatherlink.com 1.10,2013-02-17 17:34:00,
2013-02-17 12:49:00,23.7,12.0,30.27,WSW,240,2.0,4.0,61,0.00,,,0.00,weatherlink.com 1.10,2013-02-17 17:49:00,
2013-02-17 13:04:00,23.5,12.0,30.27,SW,228,3.0,6.0,62,0.00,,,0.00,weatherlink.com 1.10,2013-02-17 18:04:00,
2013-02-17 13:19:00,23.0,12.0,30.26,West,277,0.0,6.0,64,0.00,,,0.00,weatherlink.com 1.10,2013-02-17 18:19:00,
2013-02-17 13:34:00,24.5,12.0,30.26,NW,321,2.0,4.0,59,0.00,,,0.00,weatherlink.com 1.10,2013-02-17 18:34:00,
2013-02-17 13:49:00,26.3,14.0,30.25,NNW,342,5.0,5.0,59,0.00,,,0.00,weatherlink.com 1.10,2013-02-17 18:49:00,
2013-02-17 14:04:00,26.9,13.0,30.25,South,172,8.0,8.0,55,0.00,,,0.00,weatherlink.com 1.10,2013-02-17 19:04:00,
2013-02-17 14:19:00,26.7,13.0,30.26,South,176,6.0,10.0,57,0.00,,,0.00,weatherlink.com 1.10,2013-02-17 19:19:00,
2013-02-17 14:34:00,26.9,12.0,30.26,WSW,243,7.0,13.0,54,0.00,,,0.00,weatherlink.com 1.10,2013-02-17 19:34:00,
2013-02-17 14:49:00,26.8,12.0,30.25,SSW,204,4.0,9.0,54,0.00,,,0.00,weatherlink.com 1.10,2013-02-17 19:49:00,
2013-02-17 15:04:00,26.2,11.0,30.25,SE,141,3.0,9.0,54,0.00,,,0.00,weatherlink.com 1.10,2013-02-17 20:04:00,
2013-02-17 15:19:00,27.0,12.0,30.24,SSW,208,3.0,11.0,53,0.00,,,0.00,weatherlink.com 1.10,2013-02-17 20:19:00,
2013-02-17 15:34:00,27.3,12.0,30.24,WSW,242,7.0,9.0,53,0.00,,,0.00,weatherlink.com 1.10,2013-02-17 20:34:00,
2013-02-17 15:49:00,27.3,11.0,30.24,SW,219,2.0,13.0,51,0.00,,,0.00,weatherlink.com 1.10,2013-02-17 20:49:00,
2013-02-17 16:04:00,27.6,11.0,30.23,South,170,3.0,9.0,51,0.00,,,0.00,weatherlink.com 1.10,2013-02-17 21:04:00,
2013-02-17 16:19:00,28.0,12.0,30.23,SSW,204,7.0,11.0,52,0.00,,,0.00,weatherlink.com 1.10,2013-02-17 21:19:00,
2013-02-17 16:34:00,28.6,13.0,30.23,South,190,4.0,6.0,53,0.00,,,0.00,weatherlink.com 1.10,2013-02-17 21:34:00,
2013-02-17 16:49:00,28.4,13.0,30.23,SSW,208,6.0,9.0,52,0.00,,,0.00,weatherlink.com 1.10,2013-02-17 21:49:00,
2013-02-17 17:04:00,28.1,12.0,30.23,SSE,159,6.0,10.0,50,0.00,,,0.00,weatherlink.com 1.10,2013-02-17 22:04:00,
2013-02-17 17:19:00,28.0,11.0,30.23,SSW,204,4.0,11.0,49,0.00,,,0.00,weatherlink.com 1.10,2013-02-17 22:19:00,
2013-02-17 17:34:00,27.5,10.0,30.23,SSW,204,4.0,9.0,49,0.00,,,0.00,weatherlink.com 1.10,2013-02-17 22:34:00,
2013-02-17 17:49:00,27.0,10.0,30.22,SSW,203,6.0,6.0,48,0.00,,,0.00,weatherlink.com 1.10,2013-02-17 22:49:00,
2013-02-17 18:19:00,26.1,11.0,30.23,SSE,165,2.0,7.0,53,0.00,,,0.00,weatherlink.com 1.10,2013-02-17 23:19:00,
2013-02-17 18:34:00,25.7,11.0,30.23,SSE,157,2.0,6.0,55,0.00,,,0.00,weatherlink.com 1.10,2013-02-17 23:34:00,
2013-02-17 18:49:00,25.3,12.0,30.22,SSE,147,2.0,5.0,57,0.00,,,0.00,weatherlink.com 1.10,2013-02-17 23:49:00,
2013-02-17 19:04:00,25.1,12.0,30.22,SE,124,3.0,3.0,57,0.00,,,0.00,weatherlink.com 1.10,2013-02-18 00:04:00,
2013-02-17 19:34:00,24.0,13.0,30.22,SE,139,1.0,2.0,63,0.00,,,0.00,weatherlink.com 1.10,2013-02-18 00:34:00,
2013-02-17 19:49:00,23.9,13.0,30.22,ESE,122,2.0,4.0,63,0.00,,,0.00,weatherlink.com 1.10,2013-02-18 00:49:00,
2013-02-17 20:04:00,23.7,13.0,30.22,ESE,118,0.0,4.0,65,0.00,,,0.00,weatherlink.com 1.10,2013-02-18 01:04:00,
2013-02-17 20:19:00,23.5,14.0,30.23,SE,132,0.0,3.0,66,0.00,,,0.00,weatherlink.com 1.10,2013-02-18 01:19:00,
2013-02-17 20:34:00,23.3,14.0,30.23,ESE,121,1.0,4.0,68,0.00,,,0.00,weatherlink.com 1.10,2013-02-18 01:34:00,
2013-02-17 20:49:00,22.7,14.0,30.23,ESE,108,0.0,1.0,69,0.00,,,0.00,weatherlink.com 1.10,2013-02-18 01:49:00,
2013-02-17 21:04:00,22.2,14.0,30.22,SE,131,2.0,3.0,71,0.00,,,0.00,weatherlink.com 1.10,2013-02-18 02:04:00,
2013-02-17 21:19:00,22.1,14.0,30.22,ESE,113,0.0,2.0,71,0.00,,,0.00,weatherlink.com 1.10,2013-02-18 02:19:00,
2013-02-17 21:34:00,22.0,14.0,30.22,ESE,102,0.0,3.0,72,0.00,,,0.00,weatherlink.com 1.10,2013-02-18 02:34:00,
2013-02-17 21:49:00,22.5,14.0,30.22,ESE,122,3.0,5.0,71,0.00,,,0.00,weatherlink.com 1.10,2013-02-18 02:49:00,
2013-02-17 22:04:00,22.8,14.0,30.23,ESE,115,0.0,7.0,70,0.00,,,0.00,weatherlink.com 1.10,2013-02-18 03:04:00,
2013-02-17 22:19:00,22.7,14.0,30.22,SE,130,0.0,6.0,70,0.00,,,0.00,weatherlink.com 1.10,2013-02-18 03:19:00,
2013-02-17 22:34:00,22.7,14.0,30.21,ESE,116,4.0,7.0,70,0.00,,,0.00,weatherlink.com 1.10,2013-02-18 03:34:00,
2013-02-17 22:49:00,22.6,14.0,30.21,East,88,1.0,5.0,70,0.00,,,0.00,weatherlink.com 1.10,2013-02-18 03:49:00,
2013-02-17 23:05:00,22.9,14.0,30.20,SE,128,3.0,6.0,70,0.00,,,0.00,weatherlink.com 1.10,2013-02-18 04:05:00,
2013-02-17 23:20:00,23.3,14.0,30.20,SE,132,2.0,6.0,68,0.00,,,0.00,weatherlink.com 1.10,2013-02-18 04:20:00,
2013-02-17 23:35:00,23.6,14.0,30.21,SE,136,8.0,9.0,68,0.00,,,0.00,weatherlink.com 1.10,2013-02-18 04:35:00,
2013-02-17 23:50:00,23.8,14.0,30.20,SE,143,2.0,7.0,67,0.00,,,0.00,weatherlink.com 1.10,2013-02-18 04:50:00,